Location: Okie-Tex Star Party
(36.8978°N, 102.9520°W)
Time: 05:18:03
(UTC-05:00)

Daily predictions for brighter satellites

Satellite Brightness Start Highest point End
(mag) Time Altitude Azimuth Time Altitude Azimuth Time Altitude Azimuth
H-2A R/B 2.5 00:09:07 64° WNW 00:09:07 64° WNW 00:13:09 10° NNW
Meteor 1-22 Rocket 4.3 00:03:33 10° NNW 00:08:47 59° W 00:09:18 57° WSW
Tiangong 2 3.9 00:07:25 10° NW 00:08:33 18° NW 00:08:33 18° NW
ATLAS CENTAUR R/B 3.7 00:09:25 10° NNE 00:10:49 14° NE 00:10:49 14° NE
Nadezhda 3 Rocket 3.9 00:12:40 71° SSE 00:13:25 84° E 00:19:49 10° N
Cosmos 1812 Rocket 4.2 00:09:21 10° NNW 00:13:10 55° NW 00:13:10 55° NW
Cosmos 1697 Rocket 3.1 00:11:22 10° NNW 00:16:47 51° WSW 00:17:01 51° WSW
SL-19 R/B 4.5 00:13:55 10° N 00:19:06 57° WNW 00:19:50 52° WSW
Cosmos 2360 4.1 00:16:15 10° NNW 00:21:56 83° NE 00:21:56 83° NE
SL-16 R/B 3.1 00:20:01 10° N 00:25:13 36° ENE 00:25:26 36° ENE
Cosmos 1271 Rocket 4.4 00:25:25 10° NNW 00:27:48 33° NW 00:27:48 33° NW
Terra 2.8 00:30:03 39° W 00:30:03 39° W 00:34:05 10° NNW
Cosmos 1821 Rocket 4.0 00:24:51 10° N 00:31:08 67° E 00:31:16 67° E
Cosmos 1110 Rocket 4.4 00:30:59 10° N 00:35:29 56° NNE 00:35:29 56° NNE
CZ-2C R/B 4.3 00:39:13 33° ENE 00:39:13 33° ENE 00:44:03 10° N
ALOS 2 4.4 00:44:27 24° NE 00:44:27 24° NE 00:46:56 10° NNE
Cosmos 1953 4.1 00:48:34 10° NNW 00:50:49 30° NNW 00:50:49 30° NNW
SeaSat 1 3.8 00:53:41 31° NE 00:53:41 31° NE 00:57:47 10° N
Cosmos 1605 Rocket 4.3 00:47:55 10° N 00:53:30 52° ENE 00:53:30 52° ENE
USA 267 3.1 00:48:20 10° NE 00:54:54 87° SE 00:55:15 81° SSW
Lacrosse 5 2.9 00:56:51 41° NNE 00:56:51 41° NNE 01:00:09 10° NE
Cosmos 1535 Rocket 4.4 00:52:41 10° N 00:58:34 76° WNW 00:58:34 76° WNW
Cosmos 2251 Rocket 4.0 01:02:08 60° NNW 01:02:08 60° NNW 01:06:40 10° NNE
Meteor 2-5 Rocket 4.1 01:02:44 61° NE 01:02:44 61° NE 01:07:51 10° NNE
Cosmos 2360 Rocket 3.5 00:59:26 10° N 01:04:24 30° ENE 01:04:36 30° ENE
NOSS 3-1 (C) 4.1 00:57:12 10° NNW 01:04:58 77° ENE 01:06:22 63° ESE
Cosmos 1980 Rocket 3.4 01:00:26 10° NW 01:04:37 31° W 01:04:37 31° W
Cosmos 2098 Rocket 4.1 01:08:22 10° N 01:12:10 54° NNE 01:12:10 54° NNE
Lacrosse 5 rocket 3.1 01:12:35 10° NNW 01:15:50 34° N 01:15:50 34° N
Cosmos 2322 Rocket 2.5 01:11:17 10° NNW 01:16:00 62° NW 01:16:00 62° NW
SME Rocket 4.4 01:20:39 43° NW 01:20:39 43° NW 01:23:35 10° NNW
CZ-2C R/B 3.1 01:29:54 10° N 01:34:42 59° NNW 01:34:42 59° NNW
Meteor 1-24 Rocket 4.0 01:38:42 68° NNE 01:38:42 68° NNE 01:43:58 10° N
NOSS 3-1 (A) 3.9 01:30:37 10° NNW 01:38:26 89° WSW 01:39:17 75° SSE
Cosmos 2219 Rocket 4.3 01:43:21 10° N 01:47:16 19° NE 01:49:22 16° E
Cosmos 1802 Rocket 4.5 01:45:58 10° N 01:51:50 50° ENE 01:51:50 50° ENE
Cosmos 2100 Rocket 4.1 01:49:42 10° N 01:55:24 67° NE 01:55:24 67° NE
SL-16 R/B 3.9 02:04:23 10° NW 02:07:17 23° WNW 02:07:17 23° WNW
Cosmos 2061 Rocket 4.0 02:08:51 10° N 02:14:41 78° NNE 02:14:41 78° NNE
Cosmos 407 Rocket 4.5 02:18:35 40° NE 02:18:35 40° NE 02:22:10 10° NNE
Cosmos 2123 Rocket 4.3 02:20:10 58° E 02:20:10 58° E 02:25:56 10° NNE
Cosmos 2227 Rocket 3.8 02:22:51 25° E 02:22:51 25° E 02:26:33 10° NE
H-2A R/B 4.1 02:21:11 10° NNE 02:23:39 33° NNE 02:23:39 33° NNE
SeaSat 1 4.4 02:33:27 20° WNW 02:33:27 20° WNW 02:35:14 10° NW
ISS -0.3 02:29:42 10° N 02:30:10 12° N 02:30:10 12° N
Cosmos 1190 Rocket 4.5 02:38:02 59° N 02:38:02 59° N 02:42:20 10° NNE
Meteor 1-21 Rocket 4.4 02:37:42 73° NNW 02:37:42 73° NNW 02:43:03 10° N
Lacrosse 5 4.3 02:36:00 12° WNW 02:38:47 17° NNW 02:42:03 10° N
Cosmos 2219 3.6 02:46:23 56° NW 02:46:23 56° NW 02:51:27 10° NNE
Cosmos 2360 Rocket 3.6 02:43:18 10° NW 02:46:21 27° WNW 02:46:21 27° WNW
Cosmos 1725 Rocket 3.9 02:43:42 10° N 02:50:04 86° E 02:50:08 86° ESE
COSMOS 2428 3.0 02:47:10 10° NNW 02:51:54 60° NW 02:51:54 60° NW
SL-08 R/B 4.5 02:50:56 10° NNW 02:56:43 68° WNW 02:56:43 68° WNW
Cosmos 2333 4.5 02:53:39 10° NNW 02:58:24 60° NW 02:58:24 60° NW
Cosmos 1626 4.4 03:09:45 22° ENE 03:09:45 22° ENE 03:11:45 10° NE
USA 234 3.1 03:08:35 55° SE 03:10:13 86° SW 03:16:48 10° NW
DELTA 2 R/B (1) 3.9 03:15:05 54° E 03:15:05 54° E 03:19:29 10° ENE
Cosmos 1743 Rocket 4.4 03:16:44 48° N 03:16:44 48° N 03:20:01 10° N
Cosmos 1515 Rocket 4.3 03:12:08 10° N 03:15:33 51° NNE 03:15:33 51° NNE
Meteor 2-2 Rocket 4.1 03:11:38 10° N 03:17:03 79° WNW 03:17:03 79° WNW
Cosmos 614 Rocket 4.1 03:18:52 69° E 03:18:52 69° E 03:23:48 10° NNE
Cosmos 1140 Rocket 3.5 03:22:02 79° N 03:22:02 79° N 03:26:57 10° NNE
IRS-P3 4.2 03:18:19 10° NNE 03:23:37 65° ESE 03:23:48 64° ESE
Cosmos 2333 Rocket 2.0 03:19:26 10° NNW 03:25:11 87° WSW 03:25:16 86° SSW
Cosmos 2151 3.6 03:28:22 52° NNE 03:28:22 52° NNE 03:31:38 10° N
Cosmos 2297 Rocket 2.1 03:27:29 76° SE 03:27:43 78° ESE 03:33:23 10° NNE
Aureole 2 Rocket 3.8 03:25:02 10° N 03:28:13 48° NNE 03:28:13 48° NNE
ATLAS 2AS CENTAUR R/B 2.8 03:21:29 10° NW 03:29:24 72° WSW 03:31:13 54° S
Cosmos 2219 Rocket 2.4 03:26:03 10° NNW 03:31:03 57° WNW 03:31:03 57° WNW
Cosmos 1980 3.6 03:27:20 10° NNW 03:33:03 83° ENE 03:33:55 65° SE
Cosmos 1726 4.4 03:32:45 10° NNW 03:34:01 19° NW 03:34:01 19° NW
Cosmos 1850 Rocket 3.9 03:36:33 74° ESE 03:36:42 75° ESE 03:41:52 10° NNE
Cosmos 1741 Rocket 3.9 03:43:11 76° S 03:43:35 84° ESE 03:48:55 10° NNE
NOSS 2-1 (E) 4.2 03:44:38 42° NNW 03:44:38 42° NNW 03:48:03 10° NNE
NPP 3.5 03:40:52 10° NNE 03:46:17 85° WNW 03:46:52 71° SSW
SL-16 R/B 3.3 03:43:24 18° SE 03:47:50 50° ENE 03:53:45 10° N
Cosmos 1151 Rocket 3.5 03:44:29 10° NNW 03:47:57 51° NW 03:47:57 51° NW
Cosmos 2237 Rocket 2.0 03:45:59 10° NNW 03:51:36 75° WSW 03:52:19 65° SSW
SL-16 R/B 3.1 03:47:49 10° N 03:53:18 46° ENE 03:58:43 10° SE
Meteor 2-10 4.5 03:51:46 10° NNW 03:56:17 44° W 03:56:17 44° W
ADEOS 4.3 03:53:09 10° NNE 03:58:12 47° E 03:59:53 35° SSE
CBERS-1 3.9 03:55:00 10° N 04:00:05 68° WNW 04:00:41 61° WSW
CZ-3B DEB 4.4 03:54:53 35° SSW 04:02:24 81° SE 04:16:55 10° NE
Cosmos 1570 Rocket 4.0 03:57:16 10° NNW 04:02:40 81° ENE 04:04:43 39° SSE
Resurs 1-4 Rocket 2.4 03:57:47 10° NNE 04:03:02 60° E 04:04:43 41° SSE
Cosmos 2227 Rocket 2.9 04:04:40 35° W 04:05:45 39° WNW 04:11:02 10° N
ATLAS 3B CENTAUR R/B 3.8 03:46:36 10° W 04:05:48 53° SSW 04:12:40 10° ESE
ARIANE 5 R/B 2.8 04:02:14 10° NNE 04:07:15 59° E 04:08:48 40° SSE
Cosmos 2058 3.9 04:08:23 34° WNW 04:08:23 34° WNW 04:11:35 10° N
Cosmos 2034 Rocket 4.2 04:02:02 10° N 04:08:25 72° E 04:12:20 25° SSE
UNK 3.8 04:12:54 39° SSE 04:14:34 74° ENE 04:19:11 10° N
ERS-1 4.4 04:11:34 10° NNE 04:16:44 89° W 04:18:15 48° SSW
Cosmos 1707 Rocket 3.8 04:12:47 10° N 04:17:09 66° E 04:18:43 38° SSE
COBE Rocket 3.6 04:13:24 10° N 04:18:05 90° ESE 04:19:08 54° SSW
CZ-2D R/B 2.0 04:19:33 10° NNE 04:24:48 87° WNW 04:26:43 41° SSW
Tsikada Rocket 4.0 04:21:33 31° S 04:24:52 83° E 04:31:19 10° N
OAO 3 Rocket 4.3 04:25:10 28° SSE 04:25:19 29° SSE 04:29:34 10° E
CZ-3 R/B 4.4 03:23:16 10° WSW 04:26:04 69° S 04:39:05 10° ESE
Cosmos 1666 Rocket 3.4 04:28:05 51° SSW 04:29:10 84° W 04:33:38 10° N
Cosmos 1455 2.5 04:27:37 10° NNW 04:31:12 48° W 04:31:12 48° W
GPS 2-04 Rocket1 4.1 04:36:03 26° SSE 04:36:03 26° SSE 04:38:17 10° SE
SL-08 R/B 4.2 04:36:01 31° W 04:36:06 31° W 04:40:30 10° NW
Lacrosse 4 Rocket 1.5 04:39:11 47° WSW 04:40:04 59° WNW 04:44:15 10° NNE
Cosmos 1626 4.1 04:44:25 16° WNW 04:44:25 16° WNW 04:46:23 10° NW
Cosmos 1805 Rocket 4.4 04:44:58 32° W 04:45:43 34° WNW 04:49:46 10° NNW
Spot 4 Rocket 4.5 04:41:14 10° N 04:46:09 46° WNW 04:48:05 31° WSW
Cosmos 468 Rocket 3.9 04:44:53 10° NNW 04:50:06 89° W 04:55:14 10° SSE
Cosmos 371 Rocket 4.2 04:47:10 10° N 04:51:52 50° ENE 04:56:30 10° SE
Cosmos 1869 3.7 04:55:35 10° NNW 04:59:25 44° W 05:00:43 32° SW
DELTA 2 R/B (1) 3.8 04:55:50 15° W 05:00:29 68° N 05:06:02 10° ENE
CZ-3A R/B 4.0 04:58:08 10° NNW 05:01:19 34° NE 05:10:15 10° ESE
IRS-1D 4.3 04:56:31 10° N 05:01:24 38° WNW 05:03:55 24° WSW
ADEOS Rocket 4.1 04:55:37 10° N 05:02:35 43° WNW 05:07:32 20° SW
CZ-2D R/B 3.4 05:04:48 10° N 05:08:50 65° WNW 05:11:17 23° SSW
Cosmos 1763 Rocket 3.7 05:05:26 10° NNW 05:10:40 75° ENE 05:15:49 10° SSE
Okean O Rocket 3.3 05:06:53 10° NE 05:10:45 31° E 05:14:35 10° SSE
BREEZE-M R/B 3.6 05:06:58 20° SW 05:12:05 84° NW 05:15:56 10° NE
Cosmos 2297 Rocket 4.2 05:09:18 10° W 05:12:24 15° NW 05:15:33 10° NNW
Sich 1 4.2 05:11:32 22° WSW 05:13:00 26° WNW 05:16:42 10° NNW
Cosmos 1633 Rocket 4.0 05:11:33 23° WSW 05:13:14 31° WNW 05:17:07 10° NNW
GP-B 4.1 05:08:58 10° NNE 05:13:16 47° E 05:17:32 10° SSE
Cosmos 1470 Rocket 3.5 05:11:03 21° SSW 05:13:49 65° W 05:18:08 10° N
Cosmos 1634 Rocket 4.0 05:07:46 10° N 05:13:59 89° W 05:20:09 10° S
MOS 1-B 4.5 05:08:42 10° NNE 05:14:30 76° ESE 05:20:15 10° S
Cosmos 1814 Rocket 4.0 05:09:24 10° NNW 05:14:45 75° WSW 05:20:05 10° S
Cosmos 1603 3.8 05:10:37 10° NNW 05:16:22 80° ENE 05:22:01 10° SSE
CZ-4B R/B 4.3 05:13:18 10° NNE 05:17:22 38° E 05:21:15 10° SSE
NOSS 3-4 (A) 3.9 05:14:01 10° NW 05:21:03 63° WSW 05:28:31 10° SSE
NOSS 3-4 (C) 3.9 05:14:06 10° NW 05:21:10 63° WSW 05:28:38 10° SSE
PSLV R/B 4.5 05:18:43 10° NNE 05:22:38 54° E 05:26:26 10° S
UNKNOWN OBJECT B 3.8 05:22:31 10° N 05:26:05 31° WNW 05:28:17 18° WSW
Abrixas rocket 4.0 05:24:38 13° S 05:26:45 23° SE 05:29:28 10° E
Cosmos 332 Rocket 3.9 05:22:32 10° NNW 05:27:15 53° WSW 05:31:58 10° S
MOS 1 Rocket 4.0 05:25:05 10° N 05:30:04 47° WNW 05:34:34 13° SW
SL-16 R/B 3.6 05:28:29 16° SW 05:31:39 23° W 05:36:25 10° NW
Cosmos 220 Rocket 4.5 05:28:59 17° SW 05:32:09 47° WNW 05:36:28 10° N
ATLAS 5 CENTAUR R/B 1.8 05:31:07 14° SSW 05:35:04 87° SE 05:40:05 10° NNE
SL-16 R/B 3.4 05:32:49 10° NW 05:37:01 22° W 05:41:04 11° SSW
Cosmos 1315 Rocket 3.1 05:33:05 10° S 05:37:06 69° E 05:41:06 10° NNE
SL-24 R/B 4.1 05:34:27 10° N 05:38:05 44° WNW 05:41:06 13° SW
Cosmos 1354 Rocket 4.0 05:33:37 10° SSW 05:38:54 82° WNW 05:44:13 10° NNE
CZ-4B R/B 3.8 05:35:46 10° NNE 05:41:01 57° ESE 05:46:20 10° S
Resurs 1-4 Rocket 3.9 05:39:09 10° NNW 05:42:20 16° WNW 05:45:32 10° W
PSLV R/B 3.9 05:39:22 10° NNE 05:43:32 63° E 05:47:41 10° S
USA 102 3.2 05:42:22 10° N 05:45:15 33° NW 05:46:01 21° WSW
ARIANE 5 R/B 4.4 05:42:59 10° NNW 05:45:49 15° WNW 05:48:38 10° W
Okean 1-7 4.3 05:42:58 10° N 05:47:03 44° E 05:51:06 10° SSE
ADEOS II 2.1 05:43:51 10° NNE 05:49:08 88° WNW 05:54:24 10° SSW
Cosmos 540 Rocket 3.9 05:50:56 10° NNW 05:56:06 70° ENE 06:01:14 10° SSE
Meteor 2-3 Rocket 3.8 05:51:14 10° SSW 05:56:51 67° W 06:02:35 10° N
CZ-4B DEB 4.3 05:53:17 10° NNE 05:58:46 87° ESE 06:04:15 10° SSW
IRS-1C Rocket 4.1 05:57:37 10° NNE 06:02:56 87° W 06:08:12 10° SSW
Cosmos 2221 Rocket 3.9 05:58:31 10° N 06:03:05 78° E 06:07:35 10° S
Cosmos 1943 3.2 05:57:53 10° NNW 06:03:32 85° WSW 06:09:10 10° SSE
Cosmos 1892 3.3 06:00:56 10° SSW 06:04:28 38° W 06:08:05 10° N
Cosmos 1867 3.8 06:02:03 10° SW 06:07:23 59° WNW 06:12:48 10° NNE
MTI 4.5 06:04:58 10° SSE 06:08:08 59° ENE 06:11:20 10° N
OAO 3 Rocket 3.4 06:03:37 10° WSW 06:08:31 62° S 06:13:23 10° E
Cosmos 2263 Rocket 2.3 06:03:21 10° SSW 06:08:50 63° WNW 06:14:22 10° NNE
CZ-2C R/B 4.1 06:04:28 10° SSE 06:09:04 73° ENE 06:13:48 10° N
